Address 0x05291cfeb01f027044a88a3ced310ef903aeca10 3

 
Txn Hash Method
Block
From
To
Value [Txn Fee]
0x669d869fe1fc742022327d293cb8cfb522c3d2a9ca8069a68255a3cee628a76b0x9a2e4e24118754362021-10-18 8:54:141 hr 51 mins ago0x05291cfeb01f027044a88a3ced310ef903aeca10OUT 0x482d62d4b0abf02b9b2fb596117fdc0bd115ff750 BNB0.00018587
0x8985a4c6e927af76f17f074524a1e78908cd266b7fa4919f79522c81612c19430x9a2e4e24118754022021-10-18 8:52:321 hr 53 mins ago0x05291cfeb01f027044a88a3ced310ef903aeca10OUT 0x482d62d4b0abf02b9b2fb596117fdc0bd115ff750 BNB0.000222965999
0xe69639f767dc63147095348244bc9971d2731f6fb9a3271849b42e20920c609a0x9a2e4e24118754002021-10-18 8:52:261 hr 53 mins ago0x05291cfeb01f027044a88a3ced310ef903aeca10OUT 0x482d62d4b0abf02b9b2fb596117fdc0bd115ff750 BNB0.000170845
0x7ff7ad58cb4bcb5d5667466ddc66f20cd671d6555d028bfb61b9fb5a83718c170x9a2e4e24118753752021-10-18 8:51:111 hr 54 mins ago0x05291cfeb01f027044a88a3ced310ef903aeca10OUT 0x482d62d4b0abf02b9b2fb596117fdc0bd115ff750 BNB0.0001469
0x1a6c7f74ac0bef1eb2b0965778217082f2c1ea0fc59af2ed25340e5dd7778e560x9a2e4e24118753422021-10-18 8:49:321 hr 56 mins ago0x05291cfeb01f027044a88a3ced310ef903aeca10OUT 0x482d62d4b0abf02b9b2fb596117fdc0bd115ff750 BNB0.00015294
0x0e0188f52ccbaf8979d9a9e4a47f0f7a1e284726c87a9169e45118a8ff8183a40x9a2e4e24118753142021-10-18 8:48:081 hr 58 mins ago0x05291cfeb01f027044a88a3ced310ef903aeca10OUT 0x482d62d4b0abf02b9b2fb596117fdc0bd115ff750 BNB0.000238986999
0x4321d92f461b00906ba5fa55d23fd7eeeac4e061c6a77f890f5850efc214a2c20x9a2e4e24118752382021-10-18 8:44:202 hrs 1 min ago0x05291cfeb01f027044a88a3ced310ef903aeca10OUT 0x482d62d4b0abf02b9b2fb596117fdc0bd115ff750 BNB0.000204468636
0x27285b89278c677cb70402862e07bea7586ee201a34824822ab9bfd60ca4c2eb0x9a2e4e24118752382021-10-18 8:44:202 hrs 1 min ago0x05291cfeb01f027044a88a3ced310ef903aeca10OUT 0x482d62d4b0abf02b9b2fb596117fdc0bd115ff750 BNB0.000187908085
0x5acdaf63aba80ec55a3c67328638ac0166faaa277dfe863a29c0bf7ff89e244f0x9a2e4e24118751932021-10-18 8:42:052 hrs 4 mins ago0x05291cfeb01f027044a88a3ced310ef903aeca10OUT 0x482d62d4b0abf02b9b2fb596117fdc0bd115ff750 BNB0.000149715599
0x3ea6a997b9cc59c0805e09734c1d43903590dbb462638f4b4ac6b331bca991ea0x9a2e4e24118751462021-10-18 8:39:442 hrs 6 mins ago0x05291cfeb01f027044a88a3ced310ef903aeca10OUT 0x482d62d4b0abf02b9b2fb596117fdc0bd115ff750 BNB0.00017716
0xd321e8e039ba2244bfcf270985be1c7495b2eec6ff56bb569e6c261ec02ec2fd0x9a2e4e24118750982021-10-18 8:37:202 hrs 8 mins ago0x05291cfeb01f027044a88a3ced310ef903aeca10OUT 0x482d62d4b0abf02b9b2fb596117fdc0bd115ff750 BNB0.000168175
0x18aea02eb41c6dddfb7d41b0263aa3276a72d000411c18a3ae1071f4668f24f40x9a2e4e24118750742021-10-18 8:36:082 hrs 10 mins ago0x05291cfeb01f027044a88a3ced310ef903aeca10OUT 0x482d62d4b0abf02b9b2fb596117fdc0bd115ff750 BNB0.000227415497
0xc580063ad28c29fe72c6e15e8cdc2c1de44ca352c0f249e058be60cf2444ef8d0x9a2e4e24118750432021-10-18 8:34:352 hrs 11 mins ago0x05291cfeb01f027044a88a3ced310ef903aeca10OUT 0x482d62d4b0abf02b9b2fb596117fdc0bd115ff750 BNB0.000161965
0x9a1d569e072d1928c41b8736e40c61257a39cb5757c6872b268a6c9f06c30eed0x9a2e4e24118750202021-10-18 8:33:262 hrs 12 mins ago0x05291cfeb01f027044a88a3ced310ef903aeca10OUT 0x482d62d4b0abf02b9b2fb596117fdc0bd115ff750 BNB0.00120843
0xbe7e04b799e4d5c63ed2bf6379735afa14caec871d8d3adb6290588d2b5e26880x9a2e4e24118749932021-10-18 8:32:052 hrs 14 mins ago0x05291cfeb01f027044a88a3ced310ef903aeca10OUT 0x482d62d4b0abf02b9b2fb596117fdc0bd115ff750 BNB0.000146605
0xa1228796c5c262f0e2d6c8f131e15857ef5610b8ec611189ad4d199a42f2231c0x9a2e4e24118749862021-10-18 8:31:442 hrs 14 mins ago0x05291cfeb01f027044a88a3ced310ef903aeca10OUT 0x482d62d4b0abf02b9b2fb596117fdc0bd115ff750 BNB0.000161965
0x478e45f6a02d47ea9e8c2f7db6517ee2ed5a2668cb30fe7f1435c60e31a4c0380x9a2e4e24118749782021-10-18 8:31:202 hrs 14 mins ago0x05291cfeb01f027044a88a3ced310ef903aeca10OUT 0x482d62d4b0abf02b9b2fb596117fdc0bd115ff750 BNB0.000185815
0xeae1c670970fbbb5907a26105a5e0a9e55baa49f35c6c49f57701e92140104c30x9a2e4e24118749682021-10-18 8:30:502 hrs 15 mins ago0x05291cfeb01f027044a88a3ced310ef903aeca10OUT 0x482d62d4b0abf02b9b2fb596117fdc0bd115ff750 BNB0.00016795
0xa088f2a47c4b3f5251349b1fb3f6172b26abe260c37128847cab39df5d00432f0x9a2e4e24118748922021-10-18 8:27:022 hrs 19 mins ago0x05291cfeb01f027044a88a3ced310ef903aeca10OUT 0x482d62d4b0abf02b9b2fb596117fdc0bd115ff750 BNB0.000137705
0xd6cc6603ae7741538c23bff0d95c1b1f07278bfa2d085f64e706bd96cf9428290x9a2e4e24118748812021-10-18 8:26:292 hrs 19 mins ago0x05291cfeb01f027044a88a3ced310ef903aeca10OUT 0x482d62d4b0abf02b9b2fb596117fdc0bd115ff750 BNB0.00016171
0x0cc69cab7143bcc04ae7d1885c2482dacd6d904d8d1f235f502ded0f87747e1a0x9a2e4e24118748222021-10-18 8:23:322 hrs 22 mins ago0x05291cfeb01f027044a88a3ced310ef903aeca10OUT 0x482d62d4b0abf02b9b2fb596117fdc0bd115ff750 BNB0.000671179999
0xdc2d123d54d0e0e5709b55ee7b8b274a69dc972f02b98a5695b443e13852b93f0x9a2e4e24118747942021-10-18 8:22:082 hrs 24 mins ago0x05291cfeb01f027044a88a3ced310ef903aeca10OUT 0x482d62d4b0abf02b9b2fb596117fdc0bd115ff750 BNB0.000175016087
0xb13de47cfbe0caee250efee34b2d34b52920bff316433c7bcd058b6e501635d70x9a2e4e24118747442021-10-18 8:19:382 hrs 26 mins ago0x05291cfeb01f027044a88a3ced310ef903aeca10OUT 0x482d62d4b0abf02b9b2fb596117fdc0bd115ff750 BNB0.000176765
0x8fff240e47ae7b5ef584d329c0310e38b1cc90110159a06e7bb1407afbd379f40x9a2e4e24118747082021-10-18 8:17:482 hrs 28 mins ago0x05291cfeb01f027044a88a3ced310ef903aeca10OUT 0x482d62d4b0abf02b9b2fb596117fdc0bd115ff750 BNB0.000238930999
0x666a36203a47a96c813c0a1878b1520fc735a4f249ea99c2ab32f23e8445c5190x9a2e4e24118746622021-10-18 8:15:292 hrs 30 mins ago0x05291cfeb01f027044a88a3ced310ef903aeca10OUT 0x482d62d4b0abf02b9b2fb596117fdc0bd115ff750 BNB0.000140617199
[ Download CSV Export 
Parent Txn Hash Block From To Value
Loading

Contract Name:
0 BNB

Compiler Version
0

Optimization Enabled:
0 BNB

Other Settings:
-NA-
Block Transaction Gas Used Reward
Age Block Fee Address BC Fee Address Voting Power Jailed Incoming
Block Uncle Number Difficulty Gas Used Reward
Loading
Loading
Make sure to use the "Vote Down" button for any spammy posts, and the "Vote Up" for interesting conversations.